User: anonymous   Login
Location: Lawrence Hall of Science
(37.8785°N, 122.2415°W)
Time: 18:48:20
(UTC-07:00)
Language:

Cosmos 2098 Rocket - Orbit

View from above orbital plane
View from above orbital plane
View from above satellite
View from above satellite

Ground track
Ground track

The orbit data is extracted from the following two-line orbital elements,

1 20775U 90078B   15085.26392840  .00012335  00000-0  65618-3 0  9991
2 20775 082.9356 352.1777 0618927 318.2100 152.1173 14.23070287232647
Epoch (UTC): 26 March 2015 06:20:03
Eccentricity: 0.0618927
inclination: 82.9356°
perigee height: 370 km
apogee height: 1260 km
right ascension of ascending node: 352.1777°
argument of perigee: 318.2100°
revolutions per day: 14.23070287
mean anomaly at epoch: 152.1173°
orbit number at epoch: 23264

The dashed part of the orbit path shows where the satellite is in the earth's shadow,  

DLR